Terminal Aerodrome Forecast
Issued by NWS Cleveland, OH

Home | Current Version | Previous Version | Graphics & Text | Print | Product List | Glossary On
Versions: 1 2 3 4 5 6 7 8 9 10 11 12 13 14 15 16
000
FTUS41 KCLE 010534
TAFCAK
TAF
KCAK 010534Z 0106/0206 21006KT 5SM BR SCT003 BKN005
     FM010900 25005KT 4SM BR OVC003
      TEMPO 0109/0113 2SM BR
     FM011300 28007KT 6SM BR SCT006 BKN025
     FM011500 28008KT P6SM SCT025 BKN050
     FM012000 29010KT P6SM SCT050
     FM020200 34003KT P6SM SKC=

USA.gov is the U.S. government's official web portal to all federal, state and local government web resources and services.